Temp
82 81 78 72 61 59 53 60 66 63 64 67 76 70 67 66 65 56 69 71 74 74 78 80 82 83 83 83 83 83 83 83 83 83 83 84 84 83 83 83 83 84 84 83 84 84 84 84 83
80 79 74 68 56 51 53 64 62 67 66 71 71 70 67 63 68 67 67 72 75 75 76 78 82 83 83 83 83 83 84 84 83 84 83 84 83 83 84 82 83 84 83 84 84 84 84 84 83
76 77 67 62 55 52 54 65 67 68 70 69 66 69 67 64 68 69 72 75 76 74 75 78 82 83 83 83 83 83 84 83 83 84 84 84 84 83 84 83 84 84 83 84 84 84 83 84 84
73 71 69 59 58 65 65 67 71 69 71 70 67 62 67 72 71 74 75 76 75 74 76 81 83 83 83 84 83 83 83 84 83 84 84 84 84 84 84 84 84 84 83 84 84 84 84 84 84
72 66 57 56 60 68 70 72 72 69 70 69 69 62 64 70 72 74 74 77 75 74 76 80 83 83 84 84 83 83 83 83 83 83 84 84 84 84 84 84 84 84 84 84 84 84 83 83 83
63 64 55 54 61 70 72 74 74 71 70 68 65 64 65 69 71 74 76 76 78 76 78 79 83 83 84 84 83 84 83 83 83 84 83 84 84 84 84 84 85 85 85 85 84 84 83 82 83
63 60 56 58 61 67 71 76 72 70 69 69 70 62 65 67 72 74 75 76 77 78 77 77 79 82 84 84 84 84 84 83 83 83 83 83 84 84 84 84 85 85 85 84 84 83 83 83 83
65 63 59 58 60 63 74 76 78 73 70 75 72 61 62 68 74 73 75 75 75 76 77 76 76 78 78 79 84 84 83 83 83 83 83 84 83 84 84 83 85 85 84 84 83 84 83 83 83
70 59 57 62 63 66 75 75 78 76 70 74 73 69 71 70 74 72 72 72 73 75 74 75 75 75 76 77 80 83 83 83 83 83 83 82 77 79 80 81 84 85 84 84 83 83 83 83 83
65 59 63 70 70 69 74 76 74 71 70 68 67 70 70 71 71 70 69 70 72 73 74 75 75 74 75 79 77 76 78 77 76 77 77 76 76 76 79 81 84 85 84 83 83 83 82 79 76
69 64 70 72 76 76 74 74 79 69 65 67 64 67 69 71 70 70 71 71 72 75 75 76 74 74 74 75 74 74 74 75 75 76 75 75 76 76 76 75 77 77 82 77 78 77 76 76 75
67 73 72 75 78 76 74 78 73 72 69 74 70 70 70 69 70 70 70 70 71 74 76 76 74 73 73 73 73 73 73 74 74 75 75 74 74 74 74 74 75 75 75 75 75 75 75 76 76
69 74 76 77 77 75 77 72 71 67 71 73 71 70 70 71 70 72 73 72 72 73 76 75 74 72 72 72 72 72 73 74 74 75 75 74 73 73 73 72 74 74 75 74 73 74 74 74 76
77 76 76 78 78 77 73 71 73 68 71 69 69 69 70 70 72 73 73 72 73 74 76 76 74 74 73 72 72 73 73 74 75 74 74 74 73 73 72 73 73 74 74 74 74 74 72 72 74
77 71 73 76 76 74 75 67 65 68 69 66 68 67 69 70 73 73 75 75 75 76 76 75 75 74 72 73 74 73 74 74 74 75 75 75 74 73 73 72 72 73 73 74 74 73 73 73 74
71 71 63 73 74 76 72 59 65 69 67 64 67 68 69 70 72 74 76 76 76 78 77 78 80 77 74 74 73 74 74 74 74 73 74 75 74 74 73 72 72 73 73 73 72 71 71 73 73
64 59 63 69 76 75 70 62 66 69 67 64 65 67 69 69 71 73 75 75 76 76 77 78 78 77 76 74 74 74 74 74 74 72 74 74 75 74 73 72 73 72 72 72 72 71 72 72 73
59 59 63 65 73 72 67 65 65 67 67 65 66 67 68 69 71 74 75 77 77 76 75 76 78 77 75 74 73 73 73 73 74 74 74 75 74 73 72 73 73 72 71 71 72 71 72 73 73
63 63 65 69 73 69 66 65 64 66 67 65 65 66 67 69 74 75 76 78 78 75 74 74 74 74 74 72 72 71 72 72 73 74 75 75 74 74 73 72 73 72 72 72 72 72 71 72 74
62 59 61 65 71 69 66 64 66 66 66 67 67 67 69 70 71 74 75 77 77 76 74 73 74 73 74 75 75 73 72 72 73 73 74 75 75 74 73 73 72 72 72 72 72 73 71 72 72
57 58 60 63 66 67 64 62 62 66 69 70 70 71 71 71 71 73 74 76 77 75 74 74 75 75 75 75 73 71 71 71 70 71 71 74 75 75 74 74 73 73 72 72 73 73 72 71 71
52 68 69 64 60 55 64 52 58 60 64 68 70 71 71 72 74 74 75 76 78 78 76 76 74 75 76 75 74 73 73 70 71 71 71 72 74 74 74 74 74 73 72 72 74 74 73 72 70
67 70 67 65 57 53 56 54 58 58 60 64 70 72 74 75 75 76 76 75 78 81 79 77 74 75 75 75 75 74 72 71 71 70 71 71 72 74 75 75 74 74 74 73 74 73 72 73 72
73 68 62 57 54 50 50 54 55 59 64 66 71 74 76 77 77 78 79 79 77 78 81 79 75 75 75 74 75 74 74 71 70 70 70 70 70 71 73 75 74 75 74 73 74 74 73 72 73
68 56 50 49 48 48 47 54 58 66 69 72 72 72 76 78 79 78 79 78 79 78 79 81 76 74 74 74 74 74 74 72 72 72 72 70 69 69 72 74 74 73 74 74 73 73 73 74 73
59 56 51 43 45 49 50 50 62 69 69 71 75 75 77 75 78 81 80 81 79 79 79 77 74 74 74 74 74 74 75 74 74 72 72 73 72 74 73 72 74 74 75 75 74 74 74 74 74
58 56 56 49 42 49 51 59 68 70 71 72 74 74 75 74 75 78 81 82 79 78 78 75 73 74 73 74 74 74 74 74 74 72 72 73 71 73 72 72 74 74 75 74 74 74 74 74 74
61 65 57 51 45 42 51 52 57 63 67 69 70 70 71 71 72 75 77 76 72 72 72 74 75 74 75 76 76 76 76 75 75 73 71 72 71 71 71 72 74 74 75 74 73 74 75 74 74
63 58 51 51 47 46 45 54 62 66 69 69 70 69 68 69 68 68 69 70 71 72 74 76 77 76 74 75 75 75 76 76 75 74 73 73 72 72 71 72 73 74 75 75 74 73 75 74 74
59 55 53 52 48 43 47 54 69 69 70 70 70 70 68 69 68 68 70 72 72 73 74 77 76 74 75 74 75 75 75 75 75 74 75 74 73 73 73 72 72 74 75 74 74 73 76 74 73
MSLP
1009.45 1009.85 1010.17 1010.37 1011.07 1010.79 1010.34 1009.98 1009.83 1010.31 1010.71 1010.84 1010.69 1011.09 1011.64 1012.33 1012.70 1013.96 1013.69 1013.75 1013.88 1014.48 1014.59 1014.84 1015.01 1015.31 1015.44 1015.70 1015.96 1016.02 1016.11 1016.28 1016.36 1016.39 1016.49 1016.54 1016.57 1016.60 1016.68 1016.78 1016.90 1017.04 1017.18 1017.37 1017.34 1017.41 1017.59 1017.83 1018.07
1009.44 1010.01 1010.34 1010.42 1010.70 1010.40 1009.72 1009.33 1009.45 1009.63 1010.22 1010.84 1011.21 1011.58 1012.03 1012.68 1013.00 1013.50 1013.90 1013.97 1013.99 1014.54 1014.90 1015.09 1015.29 1015.49 1015.71 1015.94 1016.27 1016.30 1016.36 1016.47 1016.57 1016.72 1016.79 1016.80 1016.80 1016.77 1016.77 1016.92 1017.11 1017.22 1017.49 1017.62 1017.62 1017.72 1017.87 1018.11 1018.32
1009.64 1010.03 1010.62 1010.54 1010.39 1009.82 1009.22 1008.78 1008.98 1009.62 1010.45 1010.99 1011.55 1012.33 1012.62 1012.97 1013.31 1013.61 1013.68 1013.99 1014.25 1014.84 1015.11 1015.39 1015.56 1015.77 1015.94 1016.15 1016.51 1016.59 1016.64 1016.70 1016.81 1016.94 1017.01 1017.03 1016.97 1016.89 1016.98 1017.24 1017.33 1017.52 1017.82 1017.79 1017.91 1018.05 1018.26 1018.38 1018.50
1010.04 1010.41 1010.55 1010.31 1009.81 1008.88 1008.55 1008.51 1008.84 1009.73 1010.51 1011.17 1011.82 1012.68 1013.21 1012.89 1013.35 1013.38 1013.92 1014.08 1014.62 1015.05 1015.35 1015.50 1015.78 1015.96 1016.10 1016.32 1016.67 1016.80 1016.89 1016.98 1017.06 1017.08 1017.22 1017.22 1017.17 1017.19 1017.22 1017.45 1017.68 1017.89 1018.08 1018.11 1018.22 1018.41 1018.54 1018.74 1018.80
1009.73 1010.28 1010.58 1010.20 1009.48 1008.55 1008.13 1008.33 1008.82 1009.45 1010.17 1011.07 1011.69 1012.83 1013.31 1013.67 1013.54 1013.51 1014.06 1014.33 1014.77 1015.31 1015.53 1015.69 1015.94 1016.13 1016.21 1016.47 1016.74 1016.94 1017.11 1017.29 1017.43 1017.43 1017.47 1017.47 1017.44 1017.46 1017.58 1017.64 1017.80 1018.05 1018.31 1018.36 1018.50 1018.80 1018.94 1018.96 1019.23
1009.79 1010.25 1010.85 1010.68 1009.70 1008.38 1007.99 1008.06 1008.52 1009.14 1010.11 1011.05 1011.79 1012.50 1013.37 1013.52 1013.77 1013.99 1014.16 1014.53 1014.74 1015.22 1015.71 1015.84 1016.08 1016.26 1016.41 1016.64 1016.90 1017.08 1017.33 1017.51 1017.61 1017.74 1017.74 1017.74 1017.74 1017.79 1017.88 1017.93 1018.05 1018.20 1018.46 1018.63 1018.80 1018.95 1019.23 1019.40 1019.50
1009.48 1010.27 1010.99 1010.61 1009.61 1008.44 1008.01 1007.86 1008.20 1008.95 1009.82 1010.53 1011.10 1012.46 1013.42 1013.74 1013.89 1014.16 1014.46 1014.73 1015.02 1015.12 1015.85 1016.03 1016.26 1016.35 1016.49 1016.72 1016.99 1017.24 1017.49 1017.66 1017.82 1017.87 1017.94 1017.95 1018.01 1018.05 1018.09 1018.13 1018.19 1018.33 1018.53 1018.84 1018.99 1019.11 1019.31 1019.52 1019.66
1009.16 1009.47 1010.49 1010.17 1009.47 1008.56 1007.86 1007.71 1007.71 1008.48 1009.62 1010.24 1010.74 1011.81 1013.06 1013.51 1013.86 1014.25 1014.67 1015.14 1015.36 1015.65 1016.01 1016.27 1016.45 1016.42 1016.65 1016.85 1017.06 1017.25 1017.53 1017.68 1017.87 1017.98 1018.13 1018.11 1018.19 1018.17 1018.33 1018.40 1018.41 1018.53 1018.76 1018.89 1019.12 1019.21 1019.44 1019.55 1019.67
1009.18 1009.30 1009.61 1009.24 1008.85 1008.32 1007.68 1007.69 1007.97 1008.59 1009.32 1010.01 1010.69 1011.18 1011.78 1013.15 1013.68 1014.39 1014.96 1015.55 1015.75 1015.97 1016.16 1016.32 1016.57 1016.70 1016.85 1017.01 1017.17 1017.23 1017.46 1017.60 1017.82 1017.99 1018.19 1018.27 1018.45 1018.39 1018.48 1018.71 1018.66 1018.71 1018.85 1019.10 1019.17 1019.32 1019.51 1019.75 1019.78
1008.98 1008.97 1008.53 1008.20 1008.06 1007.76 1007.46 1007.46 1008.17 1008.89 1009.41 1010.29 1011.07 1011.62 1012.19 1013.15 1013.78 1014.43 1014.93 1015.34 1015.62 1016.06 1016.18 1016.41 1016.51 1016.79 1016.94 1016.98 1017.25 1017.37 1017.47 1017.68 1017.89 1018.11 1018.38 1018.51 1018.65 1018.69 1018.56 1018.77 1018.77 1018.84 1019.01 1019.30 1019.41 1019.49 1019.61 1019.80 1020.07
1008.47 1008.32 1008.26 1007.78 1007.12 1007.04 1006.93 1007.19 1007.52 1008.71 1009.67 1009.79 1010.58 1011.75 1012.48 1013.04 1013.94 1014.37 1014.96 1015.10 1015.39 1015.74 1016.20 1016.38 1016.45 1016.72 1016.94 1017.10 1017.36 1017.57 1017.65 1017.78 1017.99 1018.18 1018.46 1018.53 1018.65 1018.78 1018.65 1018.87 1018.95 1019.06 1019.13 1019.50 1019.68 1019.96 1020.04 1020.12 1020.36
1007.82 1007.48 1007.77 1007.15 1006.94 1006.89 1006.60 1006.73 1007.69 1008.63 1009.34 1009.32 1010.38 1011.18 1012.13 1012.95 1013.63 1014.09 1014.73 1015.14 1015.49 1015.71 1016.00 1016.24 1016.50 1016.74 1016.96 1017.16 1017.36 1017.54 1017.72 1017.78 1017.96 1018.19 1018.44 1018.61 1018.75 1018.85 1018.85 1019.06 1019.24 1019.44 1019.45 1019.69 1019.90 1020.04 1020.12 1020.31 1020.32
1007.52 1007.28 1007.43 1006.87 1006.42 1006.39 1006.27 1006.85 1007.73 1009.12 1009.50 1009.65 1010.76 1011.85 1012.43 1013.03 1013.57 1014.23 1014.67 1015.36 1015.39 1015.53 1015.91 1016.13 1016.13 1016.60 1016.81 1017.02 1017.23 1017.43 1017.55 1017.54 1017.70 1018.01 1018.28 1018.52 1018.76 1018.83 1018.92 1019.00 1019.19 1019.38 1019.48 1019.72 1020.03 1020.09 1020.36 1020.45 1020.39
1007.03 1006.57 1006.82 1006.12 1005.77 1005.93 1006.04 1007.00 1007.67 1009.72 1010.22 1010.75 1011.46 1012.04 1012.78 1013.14 1013.41 1013.96 1014.54 1015.07 1015.24 1015.16 1015.59 1015.88 1016.20 1016.28 1016.69 1016.65 1016.93 1017.15 1017.31 1017.32 1017.50 1017.76 1018.09 1018.27 1018.52 1018.77 1018.95 1019.09 1019.13 1019.43 1019.52 1019.71 1019.89 1020.02 1020.43 1020.62 1020.57
1007.24 1006.98 1006.35 1005.41 1005.34 1006.08 1006.54 1007.48 1008.53 1009.56 1010.39 1011.03 1011.79 1012.44 1012.94 1013.40 1013.66 1013.61 1013.75 1014.16 1014.63 1014.84 1015.19 1015.58 1015.88 1016.10 1016.49 1016.57 1016.69 1016.98 1017.09 1017.26 1017.45 1017.64 1017.91 1018.03 1018.27 1018.54 1018.79 1018.96 1019.19 1019.40 1019.56 1019.69 1019.92 1020.20 1020.37 1020.78 1020.80
1007.63 1007.48 1006.93 1005.55 1005.22 1006.02 1006.55 1007.84 1009.36 1010.17 1010.59 1011.42 1011.75 1012.43 1012.94 1013.36 1013.59 1013.93 1014.06 1014.25 1014.50 1014.50 1014.89 1015.24 1015.61 1015.86 1016.24 1016.52 1016.64 1016.84 1016.95 1017.17 1017.39 1017.51 1017.63 1017.72 1018.01 1018.22 1018.59 1018.81 1019.13 1019.34 1019.66 1019.70 1019.91 1020.23 1020.49 1020.74 1020.88
1008.17 1007.91 1007.24 1005.81 1004.98 1006.21 1006.61 1007.97 1009.40 1010.37 1011.03 1011.61 1012.18 1012.31 1012.64 1013.24 1013.52 1013.76 1014.04 1014.22 1014.28 1014.46 1014.70 1014.96 1015.22 1015.53 1015.81 1016.10 1016.29 1016.48 1016.67 1017.10 1017.30 1017.45 1017.41 1017.54 1017.62 1017.83 1018.12 1018.64 1019.07 1019.43 1019.57 1019.74 1019.86 1020.28 1020.48 1020.81 1020.85
1008.15 1008.07 1007.28 1006.37 1005.02 1006.17 1007.12 1008.32 1009.47 1010.08 1010.96 1011.60 1012.13 1012.46 1012.68 1012.89 1012.75 1013.08 1013.40 1013.60 1013.94 1014.25 1014.60 1014.77 1014.96 1015.28 1015.68 1016.09 1016.31 1016.45 1016.58 1016.74 1017.02 1017.23 1017.24 1017.24 1017.37 1017.78 1017.98 1018.35 1018.76 1019.22 1019.58 1019.77 1019.95 1020.20 1020.56 1020.75 1020.91
1007.48 1007.38 1006.98 1006.32 1005.92 1006.34 1007.18 1008.39 1009.29 1009.95 1010.65 1011.45 1011.71 1012.18 1012.17 1012.11 1012.62 1012.93 1013.05 1013.22 1013.53 1013.88 1014.22 1014.41 1014.86 1015.13 1015.58 1016.03 1016.34 1016.59 1016.53 1016.62 1016.73 1016.89 1016.98 1017.07 1017.34 1017.59 1018.03 1018.20 1018.55 1018.88 1019.21 1019.41 1019.77 1020.24 1020.63 1020.73 1020.89
1006.88 1007.07 1006.86 1006.63 1006.62 1006.97 1007.10 1007.96 1008.66 1009.38 1009.55 1010.15 1010.89 1011.40 1011.61 1012.10 1012.17 1012.32 1012.63 1012.94 1013.03 1013.19 1013.61 1013.99 1014.16 1014.64 1015.09 1015.56 1015.78 1016.12 1016.29 1016.39 1016.47 1016.60 1016.76 1016.81 1016.97 1017.26 1017.57 1017.86 1018.43 1018.73 1019.00 1019.27 1019.66 1019.93 1020.35 1020.61 1020.82
1006.11 1006.52 1006.68 1006.66 1007.20 1007.29 1007.67 1007.77 1008.37 1008.81 1009.04 1009.65 1010.03 1010.29 1010.63 1010.86 1010.93 1011.22 1011.65 1012.05 1012.51 1012.55 1012.65 1013.14 1013.52 1013.79 1014.28 1014.83 1015.44 1016.04 1016.33 1016.37 1016.48 1016.62 1016.70 1016.52 1016.69 1016.99 1017.23 1017.48 1017.74 1018.21 1018.61 1019.09 1019.23 1019.61 1019.83 1020.32 1020.67
1005.53 1005.14 1006.02 1006.84 1007.62 1008.18 1008.27 1008.77 1007.84 1008.06 1008.36 1008.68 1008.87 1009.09 1009.40 1009.75 1010.04 1010.47 1010.84 1011.20 1011.32 1011.59 1012.09 1012.32 1012.84 1013.36 1013.81 1014.18 1014.83 1015.15 1015.63 1016.00 1015.93 1016.09 1016.25 1016.36 1016.43 1016.68 1016.95 1017.26 1017.59 1017.71 1018.09 1018.80 1018.93 1019.10 1019.51 1019.99 1020.30
1004.81 1005.11 1006.25 1007.29 1008.25 1008.81 1009.20 1009.32 1007.86 1007.77 1007.97 1007.53 1007.59 1007.65 1007.97 1008.23 1008.75 1009.06 1009.43 1009.64 1009.78 1010.44 1010.93 1011.43 1012.07 1012.60 1013.04 1013.57 1013.95 1014.51 1015.08 1015.17 1015.52 1015.91 1016.14 1016.25 1016.37 1016.49 1016.63 1016.89 1017.25 1017.77 1017.87 1018.24 1018.65 1018.97 1019.33 1019.61 1019.90
1004.46 1005.67 1007.14 1008.34 1009.26 1009.65 1009.57 1009.49 1007.69 1007.25 1006.88 1006.39 1006.44 1006.63 1006.86 1007.02 1007.49 1007.87 1007.93 1008.80 1009.24 1009.72 1010.23 1010.71 1011.30 1011.68 1012.30 1012.85 1013.35 1013.78 1014.22 1014.78 1015.43 1015.90 1015.94 1016.12 1016.34 1016.41 1016.48 1016.66 1016.87 1017.16 1017.51 1017.95 1018.27 1018.70 1019.06 1019.36 1019.57
1004.40 1006.23 1008.02 1009.62 1010.60 1010.49 1009.51 1009.41 1007.18 1006.27 1005.57 1005.29 1005.50 1005.63 1005.68 1005.64 1005.95 1006.39 1006.75 1007.39 1008.13 1008.68 1009.09 1009.76 1010.34 1011.08 1011.61 1012.07 1012.66 1012.99 1013.46 1014.20 1014.65 1015.13 1015.55 1015.87 1016.11 1016.17 1016.07 1016.17 1016.44 1016.90 1016.91 1017.24 1017.66 1018.37 1018.73 1018.97 1019.32
1004.87 1006.36 1007.90 1009.60 1010.76 1010.51 1009.73 1008.75 1006.74 1005.78 1005.30 1004.78 1004.77 1005.16 1005.40 1005.65 1005.14 1005.06 1005.48 1006.20 1006.72 1007.18 1007.98 1009.04 1009.77 1010.17 1010.79 1011.48 1011.79 1012.36 1012.97 1013.57 1014.15 1014.53 1014.97 1015.41 1015.60 1015.44 1015.37 1015.66 1015.79 1016.18 1016.49 1016.76 1017.14 1017.78 1018.29 1018.59 1018.84
1005.21 1006.59 1007.75 1009.50 1010.84 1010.60 1009.96 1008.34 1006.45 1006.02 1005.43 1005.34 1005.20 1005.29 1005.46 1005.13 1004.66 1004.50 1004.79 1005.31 1006.10 1006.91 1007.48 1007.92 1008.71 1009.32 1009.90 1010.51 1011.39 1012.03 1012.55 1013.13 1013.51 1013.91 1014.47 1014.78 1015.13 1015.34 1015.26 1015.42 1015.64 1015.79 1016.07 1016.44 1016.88 1017.28 1017.62 1018.10 1018.36
1004.92 1006.54 1008.03 1009.53 1011.02 1011.15 1010.01 1008.65 1007.35 1006.54 1006.20 1006.14 1006.18 1006.30 1006.13 1005.68 1005.37 1004.96 1005.10 1005.46 1006.16 1006.70 1007.09 1007.77 1008.37 1008.94 1009.28 1010.11 1010.76 1011.25 1011.70 1012.37 1012.90 1013.46 1013.97 1014.24 1014.52 1015.12 1015.41 1015.63 1015.49 1015.66 1015.90 1016.27 1016.53 1016.79 1017.05 1017.44 1017.79
1006.17 1007.13 1008.95 1010.33 1011.13 1011.28 1010.48 1008.69 1006.64 1006.40 1006.19 1006.30 1006.52 1006.48 1006.29 1006.27 1006.31 1006.10 1006.18 1006.32 1006.38 1006.76 1006.93 1007.33 1008.07 1008.79 1009.73 1009.86 1010.52 1010.80 1011.32 1011.77 1012.30 1012.76 1013.22 1013.51 1013.81 1014.31 1014.81 1015.06 1015.54 1015.57 1015.68 1015.95 1016.19 1016.30 1016.61 1016.86 1017.18
1006.60 1007.57 1008.75 1010.46 1011.47 1011.46 1010.52 1008.19 1006.47 1006.27 1006.34 1006.60 1006.72 1006.18 1006.59 1006.57 1006.84 1007.07 1007.24 1007.34 1007.48 1007.68 1007.93 1008.28 1008.93 1009.50 1010.06 1010.17 1010.76 1011.38 1012.01 1012.09 1012.08 1012.42 1012.57 1012.92 1013.28 1013.50 1013.74 1014.23 1014.56 1014.80 1015.03 1015.39 1015.73 1015.88 1016.28 1016.55 1016.71
Wind_Speed
7 4 1 1 1 1 3 3 3 7 5 2 5 1 4 4 1 3 4 3 13 10 9 11 16 16 16 17 16 16 15 13 13 12 11 10 11 11 10 9 11 12 12 13 15 14 14 14 13
5 4 1 2 1 2 4 3 7 6 8 5 8 4 4 3 4 8 4 5 14 9 6 8 15 15 15 17 15 15 14 14 12 11 10 10 10 11 11 10 13 13 14 14 13 13 14 14 13
5 1 1 1 2 2 2 1 8 11 11 4 4 6 3 2 6 10 6 11 12 7 7 8 15 15 15 16 14 14 13 12 12 11 10 10 10 11 13 14 15 14 13 13 13 13 13 12 12
4 3 1 2 2 3 2 4 12 14 6 5 7 7 3 3 9 5 12 12 11 7 7 12 15 15 14 16 13 13 11 11 10 11 10 10 10 12 13 16 15 13 13 13 13 12 12 11 13
2 2 2 3 3 1 3 7 8 6 5 7 4 6 3 3 2 14 12 12 11 7 5 8 13 14 15 14 13 12 10 10 10 8 10 10 10 11 12 14 14 12 12 12 12 11 10 11 10
4 3 4 4 6 2 4 9 9 4 5 7 6 5 5 1 12 11 12 11 10 10 5 6 13 13 14 13 12 11 10 8 8 8 9 9 9 8 10 12 12 12 11 11 11 10 10 10 9
6 4 2 2 7 4 2 7 5 5 5 3 10 5 4 6 10 9 10 9 9 8 7 4 5 10 13 13 12 10 9 8 7 8 7 7 8 8 8 9 10 10 10 10 10 9 10 10 7
3 4 4 0 3 1 5 6 9 6 4 7 4 6 8 8 10 9 10 9 9 6 7 5 5 4 6 6 12 10 9 8 6 6 6 6 7 8 6 5 7 10 9 8 8 9 10 8 6
2 3 4 3 2 5 6 6 3 6 8 3 4 4 12 14 14 11 11 9 8 6 6 6 5 4 5 4 5 9 10 8 7 6 5 4 2 3 5 4 6 8 9 8 7 7 7 7 6
2 3 1 5 6 4 4 5 6 4 7 4 8 15 20 16 14 14 13 12 12 10 8 6 6 5 5 4 3 4 4 3 3 3 2 3 1 1 4 4 7 7 8 9 8 7 6 4 3
1 0 1 5 5 2 2 6 6 9 5 6 13 19 21 19 13 14 13 12 10 9 7 7 5 5 5 3 2 1 1 2 2 3 3 3 2 1 1 1 0 0 6 2 4 5 2 3 3
4 4 3 1 2 2 2 6 4 3 4 4 18 22 21 19 14 16 14 6 8 8 9 7 6 5 5 3 3 3 3 2 2 3 3 3 2 2 2 2 2 1 2 3 3 2 3 3 4
2 3 2 2 3 5 7 5 6 5 5 14 18 19 20 16 15 11 12 7 6 7 7 7 8 7 6 5 3 3 4 3 3 3 4 3 3 3 2 3 2 2 2 3 3 3 3 3 3
8 7 4 6 6 2 6 5 6 4 10 15 17 18 15 15 17 15 16 15 13 11 8 7 9 8 6 6 5 5 3 4 3 3 4 5 4 3 3 3 3 2 2 2 3 3 3 3 1
5 6 7 5 2 2 0 2 3 12 13 16 16 12 13 10 12 17 19 14 13 10 7 9 9 8 8 7 6 4 4 3 3 3 4 6 5 5 4 3 3 3 3 3 2 2 2 2 1
1 2 5 7 2 1 5 5 5 9 13 12 15 12 12 12 10 7 10 9 8 10 8 10 10 10 8 6 5 3 3 3 3 3 4 6 5 6 5 4 3 3 3 3 2 2 1 1 2
4 3 4 8 4 2 2 2 6 9 8 10 10 12 13 11 10 8 9 7 7 8 7 9 9 9 10 8 6 5 5 4 3 3 3 6 6 6 5 3 2 4 4 3 3 2 2 2 2
5 4 6 6 6 3 4 1 9 11 9 9 9 10 10 12 16 13 12 13 9 7 7 7 8 9 8 4 3 2 3 3 3 3 4 7 4 5 5 4 4 5 4 3 3 2 3 3 3
3 5 7 4 2 1 3 2 9 11 9 8 9 10 12 14 10 10 11 11 10 7 8 9 8 6 7 3 3 2 5 3 3 3 5 5 5 6 6 3 4 5 5 5 5 3 4 3 3
5 2 5 2 3 1 7 2 8 14 11 13 13 12 14 11 10 11 11 11 11 11 11 10 11 9 8 6 3 2 2 2 1 2 4 6 7 7 6 6 5 5 4 4 6 4 3 2 4
3 5 5 4 2 1 3 7 5 9 6 10 11 14 14 16 16 15 14 15 12 12 12 12 13 12 12 11 4 2 2 1 1 3 3 5 7 7 7 7 6 6 4 5 6 6 5 3 3
2 8 5 9 5 3 3 6 5 4 11 15 16 15 16 17 16 13 14 15 17 16 10 11 11 11 10 11 9 10 8 7 5 4 3 4 7 8 7 6 6 7 6 6 6 5 4 3 4
8 6 8 4 5 4 1 3 6 4 7 12 14 19 18 18 18 18 18 17 18 16 14 12 10 11 12 13 12 10 9 5 3 3 5 5 5 7 8 7 8 6 6 7 7 5 5 3 3
6 6 8 6 3 4 2 4 7 1 5 2 9 13 17 19 19 20 19 17 16 12 14 12 13 13 13 13 14 14 14 8 5 4 5 4 3 3 5 5 6 7 6 7 7 6 6 5 3
7 7 3 5 3 6 4 5 10 9 4 4 8 11 15 18 19 21 23 20 18 18 17 14 15 14 13 14 14 14 14 10 11 8 6 5 4 4 8 7 7 5 7 7 7 6 6 7 5
4 6 6 2 2 2 3 3 6 6 5 2 2 3 6 8 16 19 21 19 19 20 18 14 12 13 14 13 15 13 12 8 8 7 6 5 6 7 7 8 7 7 7 7 7 6 5 5 6
1 5 4 8 3 3 3 6 5 6 9 6 6 7 7 7 4 11 14 17 16 13 14 16 14 14 13 15 11 10 10 9 9 8 5 5 4 5 5 7 9 7 7 8 8 6 8 6 7
1 5 5 5 1 1 5 4 5 3 3 1 5 7 7 7 8 2 4 8 6 8 7 10 11 14 13 11 11 10 11 10 9 5 8 8 6 5 5 5 6 7 8 7 9 7 6 7 5
5 4 7 6 4 5 1 7 7 6 6 5 5 3 3 5 6 5 5 6 8 8 12 12 10 10 6 9 9 10 10 10 8 9 8 10 6 7 8 6 6 7 8 8 8 8 8 10 8
2 3 4 6 2 2 3 8 3 5 1 4 6 5 3 4 6 6 6 5 4 4 6 0 6 4 5 6 4 1 5 4 6 8 9 8 10 7 9 9 9 9 9 8 10 9 8 10 9
Wind_Direction
155 149 208 330 294 37 253 201 107 135 130 273 165 142 148 22 109 196 119 131 128 139 146 142 136 134 128 119 117 116 119 117 111 113 113 116 118 117 114 125 131 131 122 123 116 112 111 112 114
131 143 267 290 234 335 283 141 152 154 124 115 74 30 50 88 85 113 113 145 132 134 131 141 139 136 135 123 123 121 118 116 113 106 108 105 110 114 105 105 128 126 115 119 112 110 111 114 118
124 81 219 156 182 255 253 147 119 112 138 124 98 41 18 67 103 139 118 135 132 118 130 150 143 140 140 127 124 119 117 121 109 105 101 98 113 106 104 102 121 114 112 112 110 109 107 114 116
166 159 250 256 306 285 195 127 130 134 107 129 121 83 93 31 137 151 138 127 126 118 132 152 148 145 143 130 129 123 116 110 106 103 102 104 111 106 107 109 108 113 113 109 109 109 109 114 115
104 77 41 352 300 285 75 120 134 135 115 129 148 144 86 189 169 136 137 132 132 122 138 147 153 154 148 138 134 128 121 109 107 96 96 106 111 114 116 113 114 109 105 112 109 103 105 108 113
84 118 46 9 332 18 93 142 143 106 99 141 104 114 133 147 137 141 140 137 137 138 147 159 157 162 152 144 141 143 129 121 115 107 106 112 118 114 119 124 122 119 113 113 110 105 98 94 92
117 99 128 301 337 355 159 151 163 116 120 155 143 100 94 131 140 139 135 127 125 141 148 154 163 169 160 154 152 141 138 133 129 122 112 120 120 125 129 129 128 127 126 117 113 112 107 97 89
116 106 117 67 341 268 338 183 136 138 106 112 147 147 155 159 144 120 129 129 138 141 150 145 174 164 148 161 161 158 154 148 146 129 130 123 133 128 136 122 143 129 125 123 121 122 113 106 105
54 70 148 157 67 285 323 168 68 73 124 166 127 142 136 137 132 130 135 131 142 157 150 157 165 160 159 160 188 173 168 165 166 150 150 127 70 118 115 155 158 141 137 126 124 114 104 104 103
53 34 179 157 175 220 284 206 136 116 133 90 84 104 127 139 142 145 152 156 162 177 172 174 162 169 171 171 209 167 177 155 148 135 95 138 149 210 144 177 176 162 146 137 131 125 120 85 108
327 78 123 227 188 218 215 142 148 130 215 192 161 148 147 147 150 148 157 165 169 172 181 172 165 166 173 177 173 186 186 147 175 161 168 172 164 268 173 179 322 346 142 82 91 107 121 125 121
334 173 221 253 110 284 197 153 101 110 312 224 153 157 152 153 159 164 150 139 157 179 187 163 153 169 192 180 186 197 191 180 185 189 178 178 172 221 216 182 206 183 129 131 117 148 158 132 129
208 76 154 236 293 113 101 84 123 55 45 115 133 148 156 155 160 139 127 142 243 204 192 176 170 185 193 195 198 205 204 199 187 192 186 176 193 210 209 202 179 161 166 148 139 174 169 187 129
313 326 332 279 293 268 137 120 115 107 119 120 139 147 157 163 153 149 150 184 196 215 194 174 187 195 198 197 202 208 202 207 194 190 194 193 202 189 184 218 186 170 176 173 164 180 153 177 177
293 333 345 279 199 273 140 100 92 137 134 137 150 146 161 166 164 173 183 180 190 202 186 186 189 194 199 204 211 205 203 198 194 211 201 206 193 191 178 190 173 175 176 178 156 142 185 183 170
247 347 337 284 33 159 95 272 130 146 139 147 153 160 172 174 184 186 180 199 194 208 198 190 193 190 193 201 211 213 199 201 212 224 188 212 199 185 174 187 187 167 185 172 148 141 240 260 208
349 293 247 300 234 49 117 353 143 151 149 154 166 172 181 189 194 181 189 206 201 208 202 191 189 188 194 201 204 201 209 215 211 207 196 218 193 191 169 177 187 194 184 165 159 156 157 209 249
214 205 264 256 282 173 273 160 156 160 170 173 170 183 200 200 211 195 193 198 195 198 204 199 193 190 185 182 187 220 220 227 191 219 214 211 184 185 176 180 190 174 182 175 174 157 186 187 201
208 212 238 239 328 28 201 53 175 172 176 179 176 196 209 220 221 211 209 209 202 195 193 190 189 183 162 159 177 216 226 212 210 195 212 200 180 183 185 184 178 180 192 182 184 139 175 211 164
222 192 250 337 102 207 350 217 171 178 201 186 185 199 217 216 215 218 217 214 211 197 203 198 199 180 186 190 190 173 174 214 170 186 202 203 190 186 183 178 177 200 176 177 179 164 148 174 175
215 170 208 205 73 13 34 306 165 198 196 188 194 207 213 214 211 211 210 215 216 215 198 201 204 197 191 190 138 108 73 71 179 225 211 209 188 191 194 193 183 181 174 196 185 178 165 160 194
297 189 159 140 119 213 64 273 315 189 192 198 207 204 206 215 218 216 213 219 215 216 212 206 195 201 196 180 185 195 203 209 211 203 193 191 189 201 201 192 196 186 176 197 198 176 165 147 179
227 121 151 157 87 87 300 44 268 120 212 213 206 211 209 212 210 213 213 215 218 212 204 197 195 196 190 191 196 193 208 218 171 174 192 191 188 198 210 199 183 198 188 196 193 167 169 179 161
116 83 47 53 64 4 356 137 296 154 263 172 209 213 207 210 213 215 213 208 215 214 210 195 192 200 192 191 196 200 206 199 196 194 214 186 187 208 213 201 189 193 195 189 193 188 181 184 190
64 62 3 34 33 220 302 101 255 297 275 220 174 205 214 215 215 210 210 205 210 207 209 204 191 200 196 193 197 202 206 194 206 209 212 180 181 204 217 204 195 191 195 190 181 183 191 184 190
62 137 145 182 164 271 350 267 278 316 308 157 121 164 185 221 230 221 210 203 207 203 198 196 191 194 187 193 204 203 207 201 212 201 198 211 209 213 189 203 207 199 190 189 183 188 191 193 202
152 44 167 103 19 74 274 291 322 342 29 38 25 0 316 296 281 212 201 204 203 199 191 188 189 194 187 195 201 205 200 201 205 198 192 205 216 221 207 196 208 205 203 198 187 195 193 186 203
112 151 40 13 105 77 312 284 235 282 170 282 264 255 295 322 343 345 184 180 142 163 171 182 189 194 193 193 197 205 201 201 208 176 204 211 213 192 205 232 210 204 201 200 197 193 195 190 203
14 40 52 109 101 145 121 274 219 210 216 231 267 255 13 3 10 31 63 107 142 155 183 189 191 183 189 183 197 200 206 201 190 197 206 215 202 185 194 188 228 216 208 204 204 205 201 199 203
4 109 107 112 225 82 131 279 262 250 324 7 305 20 356 50 31 46 65 80 101 68 58 74 138 140 133 132 144 268 317 259 201 216 213 200 217 205 200 182 200 205 211 201 206 210 208 212 205